Notices

What's New in latest Release from April 7th, 2021:

- Updated Glossary, including Speed of Maximum Gust, and Total Hourly Precipitation

- Updated national and regional climate services offices contacts and prices information

- Addition of station inventory lists for 1981-2010, 1971-2000, and 1961-1990 Normals.

If you haven't already, please take our survey and provide feedback about our website: https://eccc.sondage-survey.ca/f/LanguageSelection.aspx?s=442ca660-fcf1-47c0-95a9-59707d6fd709

Hourly Data Report for August 30, 2004

SHERBROOKE A
QUEBEC

45°26'00.000" N
71°41'00.000" W
241.40 m
7028124
71610
YSC

Download Data

Hourly Data (August 2004)
Hourly Data Report for August 30, 2004
TIME
LST
Temp Definition
°C
Dew Point Definition
°C
Rel Hum Definition
%
Precip. Amount Definition
mm

Wind Dir Definition
10's deg

Wind Spd Definition
km/h
Visibility Definition
km
Stn Press Definition
kPa
Hmdx Definition


Wind Chill Definition


Weather Definition


00:00 19.4 18.5 95   24 4 9.7 98.52     Rain
01:00 19.6 18.8 95   21 7 9.7 98.57     Rain
02:00 19.8 18.8 94   25 6 15.0 98.60      
03:00 19.8 18.7 93   22 6 15.0 98.61      
04:00 19.9 18.8 93   20 9 8.0 98.64     Drizzle
05:00 19.3 18.3 94   31 9 4.8 98.72     Rain
06:00 18.4 17.3 93   25 6 6.4 98.82     Rain
07:00 18.1 17.2 94   25 7 8.0 98.87     Fog
08:00 18.3 17.3 94   29 6 9.7 98.90     Drizzle,Fog
09:00 18.8 17.3 91   27 6 16.1 98.90     Cloudy
10:00 19.1 17.5 90   28 4 16.1 98.95     Cloudy
11:00 18.9 17.5 92   30 4 12.9 98.98     Rain
12:00 19.4 17.7 90     0 16.1 98.97     Cloudy
13:00 19.5 18.0 91   4 6 12.9 98.95     Rain
14:00 19.1 18.1 94   34 6 6.4 98.96     Moderate Rain,Fog
15:00 19.1 18.2 95   7 7 12.9 98.86     Rain
16:00 19.8 18.7 93   7 7 16.1 98.83     Cloudy
17:00 19.8 18.7 93   35 4 15.0 98.83      
18:00 19.4 18.5 95   31 4 15.0 98.85      
19:00 19.0 18.0 94   8 4 15.0 98.87      
20:00 18.9 18.0 95   5 6 15.0 98.84      
21:00 18.6 17.7 95   6 6 15.0 98.82      
22:00 18.4 17.6 95   4 9 1.3 98.74      
23:00 18.3 17.6 96   4 6 0.5 98.70      

Notes on Data Quality.

Legend

  • E = Estimated
  • M = Missing
  • NA = Not Available*
  • [empty] = Indicates an unobserved value
Date modified: